Overview Statistics Trail Chart Weather Telemetry Raw packets
 

This is the latest recevied weather packets stored in our database for station/object LY3FF-10. If no packets are shown the sender has not sent any weather packets the latest 10 day(s).

<< 30 31 32 33 34 35 36 >>
Time Temp. Humidity Pressure Rain* Wind** Luminosity Snow
1787987594 18.89° C 60% 995.6 hPa - - - -
1787986853 18.33° C 61% 995.7 hPa - - - -
1787986070 18.33° C 62% 996 hPa - - - -
1787985220 17.78° C 62% 996.2 hPa - - - -
1787984324 17.22° C 62% 996.4 hPa - - - -
1787983575 17.22° C 63% 996.5 hPa - - - -
1787982730 16.67° C 63% 996.5 hPa - - - -
1787981880 16.11° C 64% 996.7 hPa - - - -
1787981037 15.56° C 65% 997 hPa - - - -
1787980240 15.56° C 66% 997.2 hPa - - - -
1787979408 15° C 66% 997.1 hPa - - - -
1787978564 14.44° C 67% 997.4 hPa - - - -
1787977664 13.89° C 67% 997.5 hPa - - - -
1787976864 13.33° C 68% 997.7 hPa - - - -
1787976050 13.33° C 68% 997.8 hPa - - - -
1787975290 13.89° C 67% 997.6 hPa - - - -
1787974470 13.89° C 67% 997.7 hPa - - - -
1787973680 13.89° C 67% 997.9 hPa - - - -
1787972950 13.89° C 67% 998 hPa - - - -
1787972098 14.44° C 66% 998 hPa - - - -
1787971344 15° C 65% 998.2 hPa - - - -
1787970455 15° C 66% 998.3 hPa - - - -
1787969684 15° C 66% 998.5 hPa - - - -
1787968824 14.44° C 66% 998.5 hPa - - - -
1787968024 15° C 65% 998.6 hPa - - - -

* Rain since midnight (hover to see other rain measurements)
** Current wind speed in m/s (hover to see current wind gust speed)